This demonstration page uses our WeatherBlox Daily Observations layout. Learn more.

Left ArrowRight Arrow

41.12389, -100.76542

Hourly Observations for July 28, 2018

Temp ( °F °C ) Dew Point ( °F °C ) Humidity (%) Winds ( mph kmh ) Pressure ( in mb ) Visibility ( mi km ) Precip ( " mm )
12:53 am 00:53 Partly Cloudy 64 17.8 63 17.2 96 96 E 5 7 30.10 1019 10 16 0.00 0.00
1:53 am 01:53 Mostly Cloudy 66 18.9 65 18.3 96 96 NE 10 17 30.12 1020 10 16 0.00 0.00
2:17 am 02:17 Cloudy with Nearby Thunderstorms 66 18.9 60 15.6 81 81 E 10 17 30.06 1018 10 16 0.00 0.00
2:32 am 02:32 Mostly Cloudy 66 18.9 58 14.4 75 75 E 12 19 30.06 1018 10 16 0.00 0.00
2:53 am 02:53 Mostly Cloudy 68 20 56 13.3 65 65 ESE 14 22 30.07 1018 10 16 0.00 0.00
3:53 am 03:53 Mostly Clear 64 17.8 57 13.9 78 78 S 5 7 30.06 1018 10 16 0.00 0.00
4:53 am 04:53 Partly Cloudy 62 16.7 58 14.4 86 86 Calm 30.06 1018 10 16 0.00 0.00
5:53 am 05:53 Cloudy with Rain 62 16.7 60 15.6 93 93 N 14 22 30.14 1021 9 14 0.01 0.25
6:53 am 06:53 Cloudy with Rain 62 16.7 62 16.7 100 100 SSE 7 11 30.06 1018 4 6 0.12 3.05
7:53 am 07:53 Sunny 62 16.7 62 16.7 100 100 Calm 30.06 1018 10 16 0.01 0.25
8:49 am 08:49 Partly Cloudy 64 18 64 18 100 100 ESE 10 17 30.09 1019 10 16 0.00 0.00
8:53 am 08:53 Mostly Cloudy 65 18.3 64 17.8 97 97 ESE 10 17 30.11 1020 10 16 0.00 0.00
9:18 am 09:18 Mostly Cloudy 66 18.9 63 17.2 90 90 SSE 9 15 30.06 1018 10 16 0.00 0.00
9:53 am 09:53 Cloudy 67 19.4 63 17.2 87 87 SE 9 15 30.13 1020 10 16 0.00 0.00
10:04 am 10:04 Cloudy 66 18.9 63 17.2 90 90 ESE 12 19 30.06 1018 10 16 0.00 0.00
10:37 am 10:37 Cloudy 67 19.4 63 17.2 87 87 ESE 6 9 30.06 1018 10 16 0.00 0.00
10:53 am 10:53 Cloudy 68 20 64 17.8 87 87 ESE 9 15 30.12 1020 10 16 0.00 0.00
11:53 am 11:53 Cloudy 70 21.1 63 17.2 79 79 E 6 9 30.12 1020 10 16 0.00 0.00
12:53 pm 12:53 Mostly Cloudy 72 22.2 64 17.8 76 76 SE 6 9 30.09 1019 10 16 0.00 0.00
1:53 pm 13:53 Mostly Cloudy 75 23.9 65 18.3 71 71 SSE 6 9 30.07 1018 10 16 0.00 0.00
2:04 pm 14:04 Cloudy 74 23.3 64 17.8 71 71 VRB 3 6 30.03 1017 10 16 0.00 0.00
2:53 pm 14:53 Cloudy 77 25 65 18.3 66 66 SSE 3 6 30.06 1018 10 16 0.00 0.00
3:53 pm 15:53 Mostly Cloudy 77 25 65 18.3 66 66 S 7 11 30.07 1018 10 16 0.00 0.00
4:53 pm 16:53 Partly Cloudy 80 26.7 66 18.9 62 62 E 9 15 30.04 1017 10 16 0.00 0.00
5:53 pm 17:53 Mostly Cloudy 78 25.6 65 18.3 64 64 SE 8 13 30.02 1017 10 16 0.00 0.00
6:53 pm 18:53 Mostly Cloudy 76 24.4 65 18.3 69 69 ESE 8 13 30.04 1017 10 16 0.00 0.00
7:53 pm 19:53 Mostly Cloudy 74 23.3 66 18.9 76 76 ESE 8 13 30.05 1018 10 16 0.00 0.00
8:53 pm 20:53 Sunny 70 21.1 66 18.9 87 87 E 14 22 30.07 1018 10 16 0.00 0.00
9:45 pm 21:45 Cloudy with Nearby Thunderstorms 67 19.4 66 18.9 97 97 SE 21 33 30.00 1016 7 11 0.01 0.25
9:53 pm 21:53 Mostly Cloudy with Nearby Thunderstorms 67 19.4 66 18.9 97 97 E 14 22 30.05 1018 8 13 0.02 0.51
10:02 pm 22:02 Mostly Cloudy with Light Rain 66 18.9 66 18.9 100 100 E 16 26 30.00 1016 10 16 0.00 0.03
10:53 pm 22:53 Clear 65 18.3 65 18.3 100 100 SSE 6 9 30.07 1018 10 16 0.00 0.03
11:53 pm 23:53 Clear 65 18.3 65 18.3 100 100 SSW 3 6 30.09 1019 10 16 0.00 0.00

Powered by AerisWeather